Regional Weather Roundup
Issued by NWS

Home | Current Version | Previous Version | Text Only | Print | Product List | Glossary Off
Versions: 1 2 3 4 5 6 7 8 9 10 11 12 13 14 15 16 17 18 19 20 21 22 23 24 25 26 27 28 29 30 31 32 33 34 35 36 37 38 39 40 41 42 43 44 45 46 47 48 49 50

000
ASUS43 KOAX 222302
RWRNE

WEATHER ROUNDUP FOR NEBRASKA
NATIONAL WEATHER SERVICE OMAHA NE
500 PM CST SUN JAN 22 2017

NOTES: SATELLITE DATA IS BEING USED TO AUGMENT CLOUD COVER ABOVE
       12000 FEET.
       "FAIR" INDICATES FEW OR NO CLOUDS BELOW 12,000 FEET WITH NO
       SIGNIFICANT WEATHER AND/OR OBSTRUCTIONS TO VISIBILITY.

  * THESE STATIONS DO NOT REPORT WEATHER SUCH AS RAIN...SNOW OR FOG.

NEZ001>004-019>022-054>056-230000-
NEBRASKA PANHANDLE

CITY           SKY/WX    TMP DP  RH WIND       PRES   REMARKS
SCOTTSBLUFF    CLEAR     44  16  32 W15       29.87S
ALLIANCE       CLEAR     43  23  45 W9        29.85S
CHADRON        CLEAR     38  27  64 NW7       29.86F WCI  33
SIDNEY         CLEAR     43  17  35 NW15      29.88S
$$

NEZ057>060-069>072-079>082-230000-
SOUTHWEST NEBRASKA

CITY           SKY/WX    TMP DP  RH WIND       PRES   REMARKS
NORTH PLATTE   CLEAR     47  26  44 NW10      29.86R
IMPERIAL       CLEAR     46  26  45 N9        29.89R
LEXINGTON      CLEAR     48  31  53 W8        29.86R
MCCOOK         CLEAR     48  29  47 NW13      29.88R
OGALLALA       CLEAR     46  29  52 NW9       29.88S
$$

NEZ005>010-023>029-035>040-094-230000-
NORTH CENTRAL NEBRASKA

CITY           SKY/WX    TMP DP  RH WIND       PRES   REMARKS
VALENTINE      CLEAR     40  24  53 NW10      29.87R WCI  33
AINSWORTH      CLEAR     40  27  59 NW9       29.85S WCI  35
BROKEN BOW     CLEAR     47  29  49 N12       29.84R
O`NEILL        CLEAR     42  28  57 NW8       29.85R
ORD            CLEAR     45  29  53 NW8       29.84R
THEDFORD       CLEAR     46  27  47 N8        29.86R
$$

NEZ041-046>049-061>064-073>077-083>087-230000-
SOUTH CENTRAL NEBRASKA

CITY           SKY/WX    TMP DP  RH WIND       PRES   REMARKS
GRAND ISLAND   CLEAR     46  31  55 NW9       29.85R
AURORA         CLEAR     44  34  67 NW5       29.84R
HASTINGS       CLEAR     46  33  60 NW6       29.86R
HEBRON         CLEAR     43  32  64 NW6       29.86R
HOLDREGE       CLEAR     47  31  53 W7        29.86R
KEARNEY *      CLEAR     46  30  53 N7        29.86R
YORK           CLEAR     41  34  75 N7        29.84R
$$

NEZ011>018-030>034-042>045-230000-
NORTHEAST NEBRASKA

CITY           SKY/WX    TMP DP  RH WIND       PRES   REMARKS
NORFOLK        CLEAR     40  28  62 NW10      29.82S WCI  33
ALBION         CLEAR     44   2  17 N8        29.84R
BLAIR          CLEAR     37  33  87 NW7       29.82R WCI  31
FREMONT        CLEAR     38  34  86 NW8       29.85R WCI  32
TEKAMAH        CLEAR     35  32  88 NW8       29.84R WCI  29
WAYNE          CLEAR     37  32  81 N6        29.83R WCI  33
$$

NEZ050>053-065>068-078-088>093-230000-
SOUTHEAST NEBRASKA

CITY           SKY/WX    TMP DP  RH WIND       PRES   REMARKS
LINCOLN        CLEAR     39  32  76 NW6       29.86R WCI  35
OMAHA EPPLEY   PTCLDY    38  32  79 NW9       29.83R WCI  31
BEATRICE       CLEAR     37  33  87 NW9       29.85S WCI  30
FALLS CITY     CLOUDY    38  34  85 NW14      29.83R WCI  30
NEBRASKA CITY  MOCLDY    37  33  84 NW8       29.83R WCI  31
PLATTSMOUTH    MOCLDY    37  32  82 NW8       29.83R WCI  31
$$

NEZ044-045-051>053-067-230000-
OMAHA AREA

CITY           SKY/WX    TMP DP  RH WIND       PRES   REMARKS
OMAHA EPPLEY   PTCLDY    38  32  79 NW9       29.83R WCI  31
BLAIR          CLEAR     37  33  87 NW7       29.82R WCI  31
FREMONT        CLEAR     38  34  86 NW8       29.85R WCI  32
MILLARD        CLOUDY    41  36  81 NW8       29.84R
OFFUTT AFB     PTCLDY    38  38  99 NW7       29.83R WCI  33
PLATTSMOUTH    MOCLDY    37  32  82 NW8       29.83R WCI  31
WAHOO          FAIR      37  33  82 NW7       29.84S WCI  32
$$




USA.gov is the U.S. government's official web portal to all federal, state and local government web resources and services.